Location: Unspecified
(0.0000°N, 0.0000°E)
Time: 09:00:01
(UTC+00:00)

Explorer 11/Cluster Stage 4 - Pass Details

Date: 15 July 2020
Orbit: 467 x 1259 km, 28.8° (Epoch: 03 August)

Event Time Altitude Azimuth Distance (km) Brightness Sun altitude
Rises 16:07:45 0° 317° (NW) 3,908 11.2 27.4°
Reaches altitude 10° 16:10:41 10° 326° (NW) 3,043 10.7 26.7°
Maximum altitude 16:17:42 37° 30° (NNE) 1,832 8.6 25.1°
Drops below altitude 10° 16:25:07 10° 94° (E) 3,226 9.3 23.4°
Sets 16:28:18 0° 102° (ESE) 4,167 9.7 22.7°
